Location: Goettingen
(51.5300°N, 9.9433°E)
Time: 06:24:40
(UTC+02:00)

ISS - Pass Details

Date: 06 May 2021
Orbit: 417 x 422 km, 51.6° (Epoch: 18 May)

Event Time Altitude Azimuth Distance (km) Brightness Sun altitude
Exits shadow 04:21:15 13° 260° (W) 1,339 -1.7 -11.0°
Maximum altitude 04:24:14 86° 173° (S) 427 -3.8 -10.6°
Drops below altitude 10° 04:27:37 10° 83° (E) 1,508 -0.1 -10.3°
Sets 04:29:43 0° 83° (E) 2,374 1.0 -10.0°
